Regional Weather Roundup
Issued by NWS

Home | Current Version | Previous Version | Text Only | Print | Product List | Glossary On
Versions: 1 2 3 4 5 6 7 8 9 10 11 12 13 14 15 16 17 18 19 20 21 22 23 24 25 26 27 28 29 30 31 32 33 34 35 36 37 38 39 40 41 42 43 44 45 46 47 48 49 50
000
ASUS46 KLOX 021012
RWRCA

SOUTHERN CALIFORNIA WEATHER ROUNDUP
NATIONAL WEATHER SERVICE OXNARD CALIFORNIA
300 AM PDT THU APR 02 2015

NOTE: "FAIR" INDICATES FEW OR NO CLOUDS BELOW 12,000 FEET WITH NO
SIGNIFICANT WEATHER AND/OR OBSTRUCTIONS TO VISIBILITY.

  -  STATIONS PRECEEDED BY AN ASTERISK (*) ARE NOT NWS OR FAA
     STATIONS AND ARE NOT SUBJECT TO NWS AND FAA QUALITY CONTROL.

CAZ041-042-087-021100-
LA AND ORANGE COUNTY COASTAL AREAS


CITY           SKY/WX    TMP DP  RH WIND       PRES   REMARKS
L.A. DOWNTOWN  CLEAR     57  49  74 CALM      29.95S
L.A. AIRPORT   CLEAR     56  48  74 N3        29.95F
LONG BEACH     CLEAR     58  47  66 CALM      29.95S

CITY           SKY/WX    TMP DP  RH WIND       PRES   REMARKS
AVALON           N/A     50 N/A N/A MISG        N/A
FULLERTON      CLEAR     57  45  64 CALM      29.94F
*GETTY CENTER    N/A    N/A N/A N/A NE2         N/A
HAWTHORNE      CLEAR     57  48  72 CALM      29.95S
*LEO CARRILLO    N/A     52  43  70 N7          N/A
*LOS ALAMITOS  FAIR      55  48  77 NE3       29.94F
*REDONDO BEACH   N/A     53  46  77 CALM      29.95S
SANTA ANA      MOCLDY    59  50  72 E5        29.94F
STA MONICA APT CLEAR     56  49  77 N3        29.95F
*UCLA            N/A     54  46  76 N6        29.92F

$$

CAZ547-548-048-021100-
LA COUNTY VALLEYS AND INLAND EMPIRE


CITY           SKY/WX    TMP DP  RH WIND       PRES   REMARKS
BURBANK        CLEAR     56  46  69 CALM      29.94F
VAN NUYS       CLEAR     58  42  55 NE7       29.94F

CITY           SKY/WX    TMP DP  RH WIND       PRES   REMARKS
CORONA AIRPORT MOSUNNY   45  41  87 CALM      29.95F
CHINO          CLEAR     54  43  66 CALM      29.96S
*CLAREMONT       N/A     49  40  70 N2          N/A
*NORTHRIDGE      N/A     59  25  27 N1G7        N/A
ONTARIO        CLEAR     55  43  63 CALM      29.95S
*PASADENA        N/A     55  48  76 CALM        N/A
RIVERSIDE      CLEAR     54  47  77 CALM      29.95S
SAN BERNARDINO NOT AVBL
*SAN RAFAEL HI   N/A     54  43  67 W5          N/A
*SAUGUS          N/A     53  24  32 NE2G14      N/A
*WHITEMAN AP   NOT AVBL
*WHITTIER HILL   N/A     54  47  78 CALM        N/A
*WOODLAND HILL   N/A     54  45  71 SE3         N/A

$$

CAZ054-055-021100-
LA AND SAN BERNARDINO COUNTY MOUNTAINS


CITY           SKY/WX    TMP DP  RH WIND       PRES   REMARKS
*ACTON           N/A     40  30  66 CALM        N/A
*BIG BEAR AIRP SUNNY     36  12  38 W5        30.01F WCI  32
*BIG PINES       N/A     40  13  33 CALM        N/A
*CHILAO          N/A     43  34  69 CALM        N/A
MT WILSON NWS    N/A     43  21  42 MISG        N/A
SANDBERG       CLEAR     42  21  43 N15G30    30.03S WCI  34
*WARM SPRINGS    N/A     45  18  33 W25G37      N/A

$$

CAZ028-029-059-060-099-021100-
ANTELOPE VALLEY AND SURROUNDING AREAS


CITY           SKY/WX    TMP DP  RH WIND       PRES   REMARKS
LANCASTER      CLEAR     50  20  30 W25G31    29.98S
PALMDALE       CLEAR     50  21  32 W22G30    29.98S
*POPPY PARK      N/A     50  21  32 W23G40      N/A

CITY           SKY/WX    TMP DP  RH WIND       PRES   REMARKS
29 PALMS       CLEAR     57  26  30 NW13      29.95R
BARSTOW/DAGGET CLEAR     57  24  28 W22G33    29.90S
BISHOP         PTCLDY    45  12  26 N16G25    29.99R
CHINA LAKE     PTCLDY    58  15  18 VRB5      29.86F
EDWARDS AFB      N/A    N/A N/A N/A MISG        N/A
MOJAVE         FAIR      52  25  35 W28G36    29.93F
NEEDLES        CLEAR     73  14  10 NW12      29.78R
VICTORVILLE    CLEAR     46  25  42 SW7       29.98R

$$

CAZ039-040-021100-
VENTURA AND SANTA BARBARA COUNTY COAST


CITY           SKY/WX    TMP DP  RH WIND       PRES   REMARKS
CAMARILLO      CLEAR     51  44  77 NE5       29.94S
NWS OXNARD       N/A     50  44  79 CALM      29.93F
OXNARD AIRPORT CLEAR     52  45  77 E5        29.94S
*POINT MUGU    CLEAR     52  46  80 NE5       29.95S
SBA APT/GOLETA CLEAR     60  30  32 N15       29.93S
*SANTA BARBARA   N/A     55  41  59 CALM      30.01S
*VENTURA         N/A     52  43  73 CALM      29.96F

$$

CAZ044-045-021100-
VENTURA COUNTY VALLEYS


CITY           SKY/WX    TMP DP  RH WIND       PRES   REMARKS
*OJAI            N/A     41  35  79 CALM      29.90S
*FILLMORE        N/A     45  38  79 CALM      29.85S

$$

CAZ053-021100-
VENTURA COUNTY MOUNTAINS


CITY           SKY/WX    TMP DP  RH WIND       PRES   REMARKS
*LOCKWOOD VLY    N/A     21  12  68 CALM        N/A
*ROSE VALLEY     N/A     28  21  74 MISG        N/A

$$

CAZ034-035-036-021100-
CENTRAL COAST AND SANTA YNEZ VALLEY


CITY           SKY/WX    TMP DP  RH WIND       PRES   REMARKS
SAN LUIS OBISP CLEAR     52  37  56 N17G29    30.05S
SANTA MARIA    CLEAR     48  44  86 NW8       30.04S

CITY           SKY/WX    TMP DP  RH WIND       PRES   REMARKS
*LOMPOC        CLEAR     48  41  76 SW8       30.03F
*PISMO BEACH     N/A     53  38  56 NE2       30.05S
*SANTA YNEZ    FAIR      41  36  81 CALM      30.01F

$$

CAZ037-038-051-021100-
SAN LUIS OBISPO COUNTY INTERIOR AND CUYAMA VALLEY


CITY           SKY/WX    TMP DP  RH WIND       PRES   REMARKS
*CUYAMA          N/A     47  24  40 SE1       30.03S
PASO ROBLES    CLEAR     45  39  79 NW7       30.09R

$$

CAZ032-033-061-021100-
SOUTHERN DESERTS


CITY           SKY/WX    TMP DP  RH WIND       PRES   REMARKS
BLYTHE         CLEAR     68  44  42 SW7       29.77F
IMPERIAL       PTCLDY    66  30  26 NW7       29.79F
PALM SPRINGS   CLEAR     65  47  52 SW3       29.81S
THERMAL        CLEAR     69  45  41 NW10      29.76F

$$

ELSEWHERE ACROSS THE WESTERN UNITED STATES AND MEXICO


CITY           SKY/WX    TMP DP  RH WIND       PRES   REMARKS
DENVER, CO     CLOUDY    38  27  64 NW9       29.95R WCI  31
GRAND CANYON,  MOCLDY    45  16  31 S9        29.95F
HONOLULU, HI   PTCLDY    72  64  78 NE8       29.99F
KAHULUI, MAUI  CLEAR     73  64  73 NE15G23   29.97F
LAKE TAHOE, CA CLOUDY    34  22  61 VRB3      30.08S
LAS VEGAS, NV  PTCLDY    66  -3   6 SW17      29.74R
MAMMOTH LAKES, FAIR      28  14  54 W9        30.05R WCI  20
MEXICO CITY, M PTCLDY    57  54  88 CALM      30.26F
PHOENIX, AZ    CLEAR     69  29  22 E8        29.82S
PORTLAND, OR   MOCLDY    45  42  89 CALM      30.39R
RENO, NV       MOCLDY    38  29  70 NE6       30.14R WCI  33
SALT LAKE CITY CLOUDY    43  16  33 VRB5      29.97R
SAN DIEGO, CA  MOCLDY    63  53  70 SW3       29.97F
SAN FRANCISCO, CLEAR     51  46  83 W9        30.14S
SAN JOSE, CA   CLEAR     48  37  65 SE3       30.14S
SEATTLE, WA    CLOUDY    43  41  93 CALM      30.36R
TIJUANA, MEX   PTCLDY    57  48  72 E6        29.98F

$$

STATION/POSITION TIME  TEMP    WIND        PRES    VSBY  WAVE
                       AIR SEA DIR/SP/G                  HT/PER
                 (UTC) (F)     (DEG/KT/KT) (MB)    (MI)  (FT/S)
POINT ARGUELLO B NOT AVBL
WEST SANTA BARBA 1000   54 55  330/ 25/ 29 1015.2F        11/ 9
POINT CONCEPTION NOT AVBL
EAST SANTA BARBA NOT AVBL
SANTA MONICA BAY 1000   60 63  330/ 10/ 12 1013.8F         6/ 7


USA.gov is the U.S. government's official web portal to all federal, state and local government web resources and services.